Overview Statistics Trail Chart Weather Telemetry Raw packets
 

This is the latest recevied weather packets stored in our database for station/object VE3DVC. If no packets are shown the sender has not sent any weather packets the latest 10 day(s).

<< 20 21 22 23 24 25 26 >>
Time Temp. Humidity Pressure Rain* Wind** Luminosity Snow
1788294016 28.89° C 84% 1014 hPa 0 mm - - -
1788292953 28.89° C 84% 1014 hPa 0 mm - - -
1788292233 28.89° C 84% 1014.1 hPa 0 mm - - -
1788291512 29.44° C 83% 1014.1 hPa 0 mm - - -
1788290793 29.44° C 81% 1014.3 hPa 0 mm - - -
1788290073 29.44° C 82% 1014.4 hPa 0 mm - - -
1788289353 29.44° C 79% 1014.3 hPa 0 mm - - -
1788288633 29.44° C 80% 1014.5 hPa 0 mm - - -
1788287913 29.44° C 81% 1014.5 hPa 0 mm - - -
1788287193 29.44° C 82% 1014.3 hPa 0 mm - - -
1788286473 28.89° C 83% 1014.4 hPa 0 mm - - -
1788285407 28.89° C 84% 1014.4 hPa 0 mm - - -
1788284686 28.89° C 85% 1014.3 hPa 0 mm - - -
1788283967 28.33° C 88% 1014.2 hPa 0 mm - - -
1788283246 28.33° C 88% 1014.2 hPa 0 mm - - -
1788279623 26.67° C 92% 1014.3 hPa 0 mm - - -
1788278183 25.56° C 91% 1014.4 hPa 0 mm - - -
1788277463 25.56° C 90% 1014.5 hPa 0 mm - - -
1788276743 25° C 90% 1014.3 hPa 0 mm - - -
1788276026 24.44° C 90% 1014.4 hPa 0 mm - - -
1788275304 23.89° C 90% 1014.4 hPa 0 mm - - -
1788274583 23.89° C 90% 1014.4 hPa 0 mm - - -
1788273864 23.89° C 90% 1014.4 hPa 0 mm - - -
1788273143 23.89° C 90% 1014.3 hPa 0 mm - - -
1788271934 23.33° C 91% 1014.3 hPa 0 mm - - -

* Rain latest hour (hover to see other rain measurements)
** Current wind speed in m/s (hover to see current wind gust speed)